|
NORAD ID: 22221 Int'l Code: 1992-076C
Perigee: 847.7 km
Apogee: 1,118.1 km
Inclination: 71.0 °
Period: 104.6 minutes
Semi major axis: 7353 km
Launch date: November 17, 1992
Source: Commonwealth of Independent States (former USSR) (CIS)
Note: This is SATELLITE DEBRIS
Two Line Element Set (TLE):
1 22221U 92076C 13140.84783341 .00000062 00000-0 93474-4 0 8910
2 22221 071.0442 270.2456 0183830 149.5941 355.0168 13.76652806 30163
Source:
NASA's NSSDC Master Catalog entry for SL-16 DEB
|